Weather Roundup
Issued by NWS Chicago, IL

Home | Current Version | Previous Version | Text Only | Print | Product List | Glossary On
Versions: 1 2 3 4 5 6 7 8 9 10 11 12 13 14 15 16 17 18 19 20 21 22 23 24 25 26 27 28 29 30 31 32 33 34 35 36 37 38 39 40 41 42 43 44 45 46 47 48 49 50
000
NZUS59 KLOT 180810
HRRLOT

CHICAGO AREA WEATHER ROUNDUP
NATIONAL WEATHER SERVICE CHICAGO/ROMEOVILLE IL
300 AM CDT THU SEP 18 2014

NOTE: "FAIR" INDICATES FEW OR NO CLOUDS BELOW 12,000 FEET WITH NO
SIGNIFICANT WEATHER AND/OR OBSTRUCTIONS TO VISIBILITY.

* THESE STATIONS ARE NOT UNDER NWS QUALITY CONTROL. THEY ALSO MAY NOT
  REPORT WEATHER SUCH AS PRECIPITATION OR FOG.

ILZ005-006-012>014-019>023-180900-
NORTHEAST ILLINOIS

CITY           SKY/WX    TMP DP  RH WIND       PRES   REMARKS
OHARE          CLEAR     55  49  80 CALM      30.05S
MIDWAY         CLEAR     56  50  80 CALM      30.05R
AURORA         CLEAR     46  43  89 CALM      30.06R
LANSING*       CLEAR     47  46  97 CALM      30.05S
JOLIET*        CLEAR     47  46  96 CALM      30.07R FOG
WAUKEGAN       CLEAR     49  47  93 W3        30.05R
DUPAGE AIRPORT CLEAR     48  46  93 N3        30.05S
WHEELING       CLEAR     51  47  86 CALM      30.07S
KANKAKEE*      CLEAR     47  47  99 CALM      30.06S FOG
MORRIS*        CLEAR     49  49 100 CALM      30.05S FOG
LEWIS AIRPORT* CLEAR     49  48  97 W3        30.06R
NORTHERLY IS     N/A     58  49  72 SW1         N/A
$$

WIZ051-052-058>065-066-070>072-180900-
SOUTHEAST WISCONSIN

CITY           SKY/WX    TMP DP  RH WIND       PRES   REMARKS
MILWAUKEE      MOCLDY    53  49  86 N12       30.08R
KENOSHA*       CLEAR     48  47  96 W3        30.06R
RACINE*        MOCLDY    54  52  93 N12       30.08R
BURLINGTON     CLEAR     42  42 100 CALM      30.06R
WAUKESHA       PTCLDY    46  46 100 NE5       30.09S
WEST BEND      CLOUDY    48  45  87 NE6       30.09R
$$

INZ001>003-010>013-019-020-180900-
NORTHWEST INDIANA

CITY           SKY/WX    TMP DP  RH WIND       PRES   REMARKS
GARY*          CLEAR     47  46  97 CALM      30.06S FOG
MICHIGAN CITY* NOT AVBL
RENSSELAER*    NOT AVBL
VALPARAISO     CLEAR     46  44  93 CALM      30.06R
$$

LMZ740>746-180900-
SOUTHERN LAKE MICHIGAN

STATION/POSITION TIME  SKY/WX   TEMP WIND        PRES    VSBY
                                AIR  DIR/SP/G
                 (UTC)          (F)  (DEG/KT/KT) (MB)    (MI)
HARRISON CRIB    0800            60  210/  4/  5   N/A
BURNHAM HARBOR   0800            57  250/  1/  5   N/A
CALUMET HARBOR   0800            56  210/  2/  3 1016.3S
BURNS HARBOR     NOT AVBL
MICHIGAN CITY    0800            54  120/  8/  9   N/A
$$

ABBREVIATIONS USED IN REMARKS
   TC - TEMPERATURE IN CELSIUS
  WCI - WIND CHILL INDEX
   HX - HEAT INDEX
  VSB - VISIBILITY
$$



USA.gov is the U.S. government's official web portal to all federal, state and local government web resources and services.